,

(GMT )
Banff

Weather History for CWZG - November, 2013

Change the Weather History Date:

Sunday, November 10, 2013

  Actual Average Record
Temperature  
Mean Temperature 14 °F -  
Max Temperature 23 °F - - ()
Min Temperature 3 °F - - ()
Degree Days  
Heating Degree Days 52    
Moisture  
Dew Point 14 °F    
Average Humidity 89    
Maximum Humidity 95    
Minimum Humidity 75    
Precipitation  
Precipitation 0.00 in - - ()
Sea Level Pressure  
Sea Level Pressure 30.33 in    
Wind  
Wind Speed 2 mph ()    
Max Wind Speed 5 mph    
Max Gust Speed -    
T = Trace of Precipitation, MM = Missing Value Source: Averaged Metar Reports

Daily Weather History Graph

Daily Weather History Graph

Search for Another Location

Airport or City:

Trip Planner

Search our weather history database for the weather conditions in past years. The results will help you decide how hot, cold, wet, or windy it might be!

Date:

Astronomy

Nov. 10, 2013 Rise Set
Actual Time 7:51 AM MST 5:00 PM MST
Civil Twilight 7:15 AM MST 5:36 PM MST
Nautical Twilight 6:35 AM MST 6:16 PM MST
Astronomical Twilight 5:56 AM MST 6:55 PM MST
Moon 1:51 PM MST (11/10) No Moon Set
Length of Visible Light 10h 21m
Length of Day
9h 09m
First Quarter, 56% of the Moon is Illuminated
Nov 10
First Quarter
Nov 17
Full
Nov 25
Last Quarter
Dec 2
New
Dec 9
First Quarter

Hourly Weather History & Observations

Time (MST) Temp. Windchill Dew Point Humidity Pressure Visibility Wind Dir Wind Speed Gust Speed Precip Events Conditions
12:00 AM 20.3 °F 13.8 °F 17.4 °F 89% 30.24 in - ENE 4.6 mph - N/A   Unknown
1:00 AM 19.9 °F 14.9 °F 17.8 °F 91% 30.25 in - NE 3.5 mph - N/A   Unknown
2:00 AM 19.9 °F 14.9 °F 18.0 °F 92% 30.25 in - NE 3.5 mph - N/A   Unknown
3:00 AM 19.9 °F 14.9 °F 18.0 °F 92% 30.25 in - NE 3.5 mph - N/A   Unknown
4:00 AM 19.8 °F 14.7 °F 17.8 °F 92% 30.25 in - NE 3.5 mph - N/A   Unknown
5:00 AM 19.6 °F - 17.6 °F 92% 30.25 in - NE 2.3 mph - N/A   Unknown
6:00 AM 19.2 °F - 17.2 °F 92% 30.26 in - NE 2.3 mph - N/A   Unknown
7:00 AM 19.0 °F - 17.1 °F 92% 30.26 in - NE 2.3 mph - N/A   Unknown
8:00 AM 18.3 °F - 16.3 °F 92% 30.28 in - NE 2.3 mph - N/A   Unknown
9:00 AM 18.3 °F - 15.8 °F 90% 30.29 in - NE 2.3 mph - N/A   Unknown
10:00 AM 18.7 °F 13.5 °F 15.4 °F 87% 30.31 in - NE 3.5 mph - N/A   Unknown
11:00 AM 19.6 °F - 15.1 °F 83% 30.33 in - East 2.3 mph - N/A   Unknown
12:00 PM 19.9 °F - 14.7 °F 80% 30.33 in - East 2.3 mph - N/A   Unknown
1:00 PM 20.3 °F - 14.2 °F 77% 30.32 in - East 1.2 mph - N/A   Unknown
2:00 PM 22.3 °F - 15.8 °F 76% 30.32 in - South 2.3 mph - N/A   Unknown
3:00 PM 23.7 °F - 16.9 °F 75% 30.30 in - Calm Calm - N/A   Unknown
4:00 PM 21.2 °F - 17.1 °F 84% 30.33 in - South 1.2 mph - N/A   Unknown
5:00 PM 17.8 °F - 15.4 °F 91% 30.35 in - Calm Calm - N/A   Unknown
6:00 PM 15.8 °F - 14.5 °F 95% 30.38 in - Calm Calm - N/A   Unknown
7:00 PM 12.4 °F - 11.3 °F 95% 30.40 in - North 1.2 mph - N/A   Unknown
8:00 PM 9.1 °F - 8.1 °F 95% 30.43 in - North 1.2 mph - N/A   Unknown
9:00 PM 7.0 °F - 5.5 °F 94% 30.46 in - Calm Calm - N/A   Unknown
10:00 PM 4.1 °F - 1.9 °F 91% 30.48 in - NE 1.2 mph - N/A   Unknown
11:00 PM 3.9 °F - 2.1 °F 92% 30.50 in - Calm Calm - N/A   Unknown